Volver al catálogo

STARLINK-30395

ActivoComunicacionesVLEO
NORAD 57812·PAYLOAD·🇺🇸 United States

Lanzado Sep 9, 2023 desde Cape Canaveral Space Force Station

Loading…

Próximos Pases (próximas 24 horas)

TLE

ActualizadoSource: CelesTrak SupGP

Época: Sep 14, 2026, 21:28 UTC

1 57812C 23138E   26257.89493056  .00038091  00000+0  13798-2 0  2573
2 57812  43.0029 245.6665 0001353 264.2791 132.8297 15.27556169    10

Sigue STARLINK-30395 en tiempo real con AllMySat

Download on the App Store